Content
SEND FEEDBACK

Daily
Averages
Monthly
Summary
United States of America

ONTARIO, CALIFORNIA


Home > North America > United States > California
Elevation: 287 feet     Latitude: 34 03N     Longitude: 117 36W

WEATHER
 
SELECT A DAY
Number of Records: 179,591;   Date Range: 1/1/95 - 7/29/14
 
SHARE

PRINT THIS DATA

[ ← Previous Day ]
WEATHER ALMANAC - JANUARY 31, 2013
[ Next Day → ]
[ °C ]   °F
Weather ElementAverageHighLow
Temperature59.9 °F75 °F (2:53 pm)45 °F (6:53 am)
Dewpoint37.4 °F39.9 °F (3:53 pm)33.1 °F (5:53 pm)
Humidity47 %74 % (6:53 am)23 % (2:53 pm)
Barometer30.15 in30.22 in (1:53 am)30.08 in (3:53 pm)
Wind Speed2.5 mph8.1 mph (1:53 pm)
Weather ElementAverage
Visibility10 mi
Wind DirectionESE (104.3 °)

Weather ElementTotal
Precipitation---
Heating Degree Days5 (Base 65)
Growing Degree Days10 (Base 50)
Averaged from 23 records on January 31, 2013
WEATHER CONDITIONS BREAKOUT
WIND DIRECTION BREAKOUT
WEATHER BY HOUR - JANUARY 31, 2013
[ °C ]   °F
Local TimeTemperatureDewpointHumidityBarometerVisibilityWind DirectionWind SpeedGust SpeedPrecipitationEventsConditions
1:53 AM48.0 °F37.9 °F68 %30.22 in10.0 miCalmClear
2:53 AM48.0 °F37.9 °F68 %30.21 in10.0 miCalmClear
3:53 AM46.9 °F37.0 °F68 %30.19 in10.0 miENE (60°)6.9 mphClear
4:53 AM48.0 °F37.9 °F68 %30.18 in10.0 miCalmClear
5:53 AM46.0 °F37.0 °F71 %30.17 in10.0 miNNE (30°)3.5 mphClear
6:53 AM45.0 °F37.0 °F74 %30.18 in10.0 miCalmPartly Cloudy
7:53 AM51.1 °F37.9 °F61 %30.19 in10.0 miCalmPartly Cloudy
8:53 AM55.9 °F39.0 °F53 %30.21 in10.0 miNorth (350°)3.5 mphPartly Cloudy
9:53 AM61.0 °F39.0 °F44 %30.22 in10.0 miCalmPartly Cloudy
10:53 AM66.9 °F39.0 °F36 %30.20 in10.0 miCalmPartly Cloudy
11:53 AM70.0 °F37.0 °F30 %30.18 in10.0 miWSW (240°)5.8 mphPartly Cloudy
12:53 PM73.0 °F36.0 °F26 %30.13 in10.0 miWNW (290°)4.6 mphPartly Cloudy
1:53 PM73.9 °F35.1 °F24 %30.10 in10.0 miWSW (250°)8.1 mphPartly Cloudy
2:53 PM75.0 °F35.1 °F23 %30.09 in10.0 miWest (280°)3.5 mphPartly Cloudy
3:53 PM73.0 °F39.9 °F30 %30.08 in10.0 miWest (270°)6.9 mphPartly Cloudy
4:53 PM71.1 °F35.1 °F27 %30.09 in10.0 miWest (270°)4.6 mphPartly Cloudy
5:53 PM71.1 °F33.1 °F25 %30.11 in10.0 miCalmScattered Clouds
6:53 PM66.9 °F35.1 °F31 %30.12 in10.0 miNorth (10°)4.6 mphScattered Clouds
7:53 PM61.0 °F37.9 °F42 %30.12 in10.0 miCalmPartly Cloudy
8:53 PM59.0 °F39.0 °F48 %30.13 in10.0 miCalmPartly Cloudy
9:53 PM57.0 °F39.0 °F51 %30.13 in10.0 miCalmPartly Cloudy
10:53 PM55.9 °F39.9 °F55 %30.12 in10.0 miNorth (350°)5.8 mphPartly Cloudy
11:53 PM54.0 °F39.0 °F57 %30.12 in10.0 miCalmPartly Cloudy
Hourly data recorded from KONT, located miles away from Ontario, California







STORIES FROM OUR PARTNERS